Starlink 4410

operational
NORAD ID: 53204 Int'l Des: 2022-084 Owner: SPXS Country: US Constellation: starlink
LEOCIRCULARRETROGRADESSO

About Starlink 4410

Description loading...

Live Position

Loading 3D Globe...

Upcoming Passes

Altitude History

Altitude vs Time

uPlot chart will show altitude changes over time

Two-Line Element Set

1 53204U 22084R 25299.12500306 .00014310 00000-0 11153-2 0 9996
2 53204 97.6039 358.4706 0001952 215.8888 144.2205 15.01297049179788
Epoch: Oct 26, 2025 • Age: 8 hours

Current Status

Altitude 587.6 km
Velocity 7.57 km/s
Sub-Earth Point -68.76°S, 33.88°W
Launch Date Jul 22, 2022
Age 3.2 years
Type internet

Technical Details

Classification Payload
Mass 297.00 kg
Dry Mass 275.00 kg
Total Mass 297.00 kg
Length 0.20 m
Diameter 2.80 m
Span 9.00 m
Shape Box + pan
Manufacturer SPXS
Bus Type Starlink
Phase Status In Orbit
Owner/State SPXS/US

Large Constellations

Loading constellations...